Time,TemperatureF,DewpointF,PressureIn,WindDirection,WindDirectionDegrees,WindSpeedMPH,WindSpeedGustMPH,Humidity,HourlyPrecipIn,Conditions,Clouds,dailyrainin,SoftwareType,DateUTC
2013-02-20 00:04:00,27.1,15.9,30.13,North,0,0.0,0.0,62,0.00,,,0.00,WUHU216HW,2013-02-20 05:04:00,
2013-02-20 00:09:00,27.1,15.9,30.13,North,0,0.0,0.0,62,0.00,,,0.00,WUHU216HW,2013-02-20 05:09:00,
2013-02-20 00:14:00,27.1,15.9,30.13,North,0,0.0,0.0,62,0.00,,,0.00,WUHU216HW,2013-02-20 05:14:00,
2013-02-20 00:19:00,27.1,15.9,30.13,North,0,0.0,0.0,62,0.00,,,0.00,WUHU216HW,2013-02-20 05:19:00,
2013-02-20 00:24:00,26.9,15.7,30.13,North,0,0.0,0.0,62,0.00,,,0.00,WUHU216HW,2013-02-20 05:24:00,
2013-02-20 00:29:00,26.9,15.7,30.13,North,0,0.0,0.0,62,0.00,,,0.00,WUHU216HW,2013-02-20 05:29:00,
2013-02-20 00:34:00,27.1,15.9,30.13,North,0,0.0,0.0,62,0.00,,,0.00,WUHU216HW,2013-02-20 05:34:00,
2013-02-20 00:39:00,27.1,15.9,30.13,North,0,0.0,0.0,62,0.00,,,0.00,WUHU216HW,2013-02-20 05:39:00,
2013-02-20 00:44:00,27.1,15.9,30.14,North,0,0.0,0.0,62,0.00,,,0.00,WUHU216HW,2013-02-20 05:44:00,
2013-02-20 00:49:00,27.3,16.0,30.14,North,0,0.0,0.0,62,0.00,,,0.00,WUHU216HW,2013-02-20 05:49:00,
2013-02-20 00:54:00,27.3,16.0,30.14,North,0,0.0,0.0,62,0.00,,,0.00,WUHU216HW,2013-02-20 05:54:00,
2013-02-20 00:59:00,27.3,16.0,30.13,North,0,0.0,0.0,62,0.00,,,0.00,WUHU216HW,2013-02-20 05:59:00,
2013-02-20 01:04:00,27.4,16.1,30.14,North,0,0.0,0.0,62,0.00,,,0.00,WUHU216HW,2013-02-20 06:04:00,
2013-02-20 01:09:00,27.4,16.1,30.13,North,0,0.0,0.0,62,0.00,,,0.00,WUHU216HW,2013-02-20 06:09:00,
2013-02-20 01:14:00,27.4,16.1,30.13,North,0,0.0,0.0,62,0.00,,,0.00,WUHU216HW,2013-02-20 06:14:00,
2013-02-20 01:19:00,27.3,16.0,30.13,North,0,0.0,0.0,62,0.00,,,0.00,WUHU216HW,2013-02-20 06:19:00,
2013-02-20 01:24:00,26.9,15.7,30.13,North,0,0.0,0.0,62,0.00,,,0.00,WUHU216HW,2013-02-20 06:24:00,
2013-02-20 01:29:00,26.9,15.7,30.14,North,0,0.0,0.0,62,0.00,,,0.00,WUHU216HW,2013-02-20 06:29:00,
2013-02-20 01:34:00,26.9,15.3,30.14,North,0,0.0,0.0,61,0.00,,,0.00,WUHU216HW,2013-02-20 06:34:00,
2013-02-20 01:39:00,26.7,15.1,30.14,North,0,0.0,0.0,61,0.00,,,0.00,WUHU216HW,2013-02-20 06:39:00,
2013-02-20 01:44:00,26.7,15.1,30.14,North,0,0.0,0.0,61,0.00,,,0.00,WUHU216HW,2013-02-20 06:44:00,
2013-02-20 01:49:00,26.7,15.1,30.14,North,0,0.0,0.0,61,0.00,,,0.00,WUHU216HW,2013-02-20 06:49:00,
2013-02-20 01:54:00,26.7,15.1,30.14,North,0,0.0,0.0,61,0.00,,,0.00,WUHU216HW,2013-02-20 06:54:00,
2013-02-20 01:59:00,26.7,15.1,30.13,North,0,0.0,0.0,61,0.00,,,0.00,WUHU216HW,2013-02-20 06:59:00,
2013-02-20 02:04:00,26.9,15.7,30.13,North,0,0.0,0.0,62,0.00,,,0.00,WUHU216HW,2013-02-20 07:04:00,
2013-02-20 02:09:00,27.1,15.5,30.14,North,0,0.0,0.0,61,0.00,,,0.00,WUHU216HW,2013-02-20 07:09:00,
2013-02-20 02:14:00,26.7,15.1,30.14,North,0,0.0,0.0,61,0.00,,,0.00,WUHU216HW,2013-02-20 07:14:00,
2013-02-20 02:19:00,26.7,15.1,30.14,North,0,0.0,0.0,61,0.00,,,0.00,WUHU216HW,2013-02-20 07:19:00,
2013-02-20 02:24:00,26.7,15.1,30.14,North,0,0.0,0.0,61,0.00,,,0.00,WUHU216HW,2013-02-20 07:24:00,
2013-02-20 02:29:00,26.9,15.3,30.14,North,0,0.0,0.0,61,0.00,,,0.00,WUHU216HW,2013-02-20 07:29:00,
2013-02-20 02:34:00,26.9,15.3,30.14,North,0,0.0,0.0,61,0.00,,,0.00,WUHU216HW,2013-02-20 07:34:00,
2013-02-20 02:39:00,26.7,15.1,30.14,North,0,0.0,0.0,61,0.00,,,0.00,WUHU216HW,2013-02-20 07:39:00,
2013-02-20 02:44:00,26.7,15.1,30.14,North,0,0.0,0.0,61,0.00,,,0.00,WUHU216HW,2013-02-20 07:44:00,
2013-02-20 02:49:00,26.7,15.1,30.15,North,0,0.0,0.0,61,0.00,,,0.00,WUHU216HW,2013-02-20 07:49:00,
2013-02-20 02:55:00,26.7,15.1,30.15,North,0,0.0,0.0,61,0.00,,,0.00,WUHU216HW,2013-02-20 07:55:00,
2013-02-20 03:00:00,26.9,15.3,30.15,North,0,0.0,0.0,61,0.00,,,0.00,WUHU216HW,2013-02-20 08:00:00,
2013-02-20 03:05:00,26.9,15.3,30.15,North,0,0.0,0.0,61,0.00,,,0.00,WUHU216HW,2013-02-20 08:05:00,
2013-02-20 03:10:00,26.9,15.3,30.15,North,0,0.0,0.0,61,0.00,,,0.00,WUHU216HW,2013-02-20 08:10:00,
2013-02-20 03:15:00,26.7,15.1,30.15,North,0,0.0,0.0,61,0.00,,,0.00,WUHU216HW,2013-02-20 08:15:00,
2013-02-20 03:20:00,26.7,15.1,30.15,North,0,0.0,0.0,61,0.00,,,0.00,WUHU216HW,2013-02-20 08:20:00,
2013-02-20 03:25:00,26.7,15.1,30.15,North,0,0.0,0.0,61,0.00,,,0.00,WUHU216HW,2013-02-20 08:25:00,
2013-02-20 03:30:00,26.7,15.1,30.15,North,0,0.0,0.0,61,0.00,,,0.00,WUHU216HW,2013-02-20 08:30:00,
2013-02-20 03:35:00,26.4,14.4,30.16,North,0,0.0,0.0,60,0.00,,,0.00,WUHU216HW,2013-02-20 08:35:00,
2013-02-20 03:40:00,26.2,13.8,30.15,North,0,0.0,0.0,59,0.00,,,0.00,WUHU216HW,2013-02-20 08:40:00,
2013-02-20 03:45:00,26.0,14.0,30.16,North,0,0.0,0.0,60,0.00,,,0.00,WUHU216HW,2013-02-20 08:45:00,
2013-02-20 03:50:00,25.8,13.9,30.16,North,0,0.0,0.0,60,0.00,,,0.00,WUHU216HW,2013-02-20 08:50:00,
2013-02-20 03:55:00,25.8,13.9,30.16,North,0,0.0,0.0,60,0.00,,,0.00,WUHU216HW,2013-02-20 08:55:00,
2013-02-20 04:00:00,26.0,14.0,30.15,North,0,0.0,0.0,60,0.00,,,0.00,WUHU216HW,2013-02-20 09:00:00,
2013-02-20 04:05:00,25.8,13.9,30.15,North,0,0.0,0.0,60,0.00,,,0.00,WUHU216HW,2013-02-20 09:05:00,
2013-02-20 04:10:00,26.0,14.0,30.16,North,0,0.0,0.0,60,0.00,,,0.00,WUHU216HW,2013-02-20 09:10:00,
2013-02-20 04:15:00,25.8,13.9,30.15,North,0,0.0,0.0,60,0.00,,,0.00,WUHU216HW,2013-02-20 09:15:00,
2013-02-20 04:20:00,25.6,14.1,30.15,North,0,0.0,0.0,61,0.00,,,0.00,WUHU216HW,2013-02-20 09:20:00,
2013-02-20 04:25:00,25.6,14.1,30.15,North,0,0.0,0.0,61,0.00,,,0.00,WUHU216HW,2013-02-20 09:25:00,
2013-02-20 04:30:00,25.5,14.0,30.16,North,0,0.0,0.0,61,0.00,,,0.00,WUHU216HW,2013-02-20 09:30:00,
2013-02-20 04:35:00,25.5,14.0,30.16,North,0,0.0,0.0,61,0.00,,,0.00,WUHU216HW,2013-02-20 09:35:00,
2013-02-20 04:40:00,25.5,14.0,30.16,North,0,0.0,0.0,61,0.00,,,0.00,WUHU216HW,2013-02-20 09:40:00,
2013-02-20 04:45:00,25.5,14.0,30.16,North,0,0.0,0.0,61,0.00,,,0.00,WUHU216HW,2013-02-20 09:45:00,
2013-02-20 04:50:00,25.5,14.0,30.16,North,0,0.0,0.0,61,0.00,,,0.00,WUHU216HW,2013-02-20 09:50:00,
2013-02-20 04:55:00,25.3,14.1,30.16,North,0,0.0,0.0,62,0.00,,,0.00,WUHU216HW,2013-02-20 09:55:00,
2013-02-20 05:00:00,25.3,14.1,30.16,North,0,0.0,0.0,62,0.00,,,0.00,WUHU216HW,2013-02-20 10:00:00,
2013-02-20 05:05:00,25.3,14.1,30.17,North,0,0.0,0.0,62,0.00,,,0.00,WUHU216HW,2013-02-20 10:05:00,
2013-02-20 05:10:00,25.3,13.8,30.17,North,0,0.0,0.0,61,0.00,,,0.00,WUHU216HW,2013-02-20 10:10:00,
2013-02-20 05:15:00,25.3,14.1,30.17,North,0,0.0,0.0,62,0.00,,,0.00,WUHU216HW,2013-02-20 10:15:00,
2013-02-20 05:20:00,25.3,13.8,30.17,North,0,0.0,0.0,61,0.00,,,0.00,WUHU216HW,2013-02-20 10:20:00,
2013-02-20 05:25:00,25.3,14.1,30.17,North,0,0.0,0.0,62,0.00,,,0.00,WUHU216HW,2013-02-20 10:25:00,
2013-02-20 05:30:00,25.3,13.8,30.17,North,0,0.0,0.0,61,0.00,,,0.00,WUHU216HW,2013-02-20 10:30:00,
2013-02-20 05:35:00,25.1,13.6,30.17,North,0,0.0,0.0,61,0.00,,,0.00,WUHU216HW,2013-02-20 10:35:00,
2013-02-20 05:40:00,24.9,13.4,30.18,North,0,0.0,0.0,61,0.00,,,0.00,WUHU216HW,2013-02-20 10:40:00,
2013-02-20 05:45:00,24.9,13.4,30.18,North,0,0.0,0.0,61,0.00,,,0.00,WUHU216HW,2013-02-20 10:45:00,
2013-02-20 05:50:00,24.7,13.2,30.18,North,0,0.0,0.0,61,0.00,,,0.00,WUHU216HW,2013-02-20 10:50:00,
2013-02-20 05:55:00,24.9,13.4,30.18,North,0,0.0,0.0,61,0.00,,,0.00,WUHU216HW,2013-02-20 10:55:00,
2013-02-20 06:00:00,24.9,13.4,30.18,North,0,0.0,0.0,61,0.00,,,0.00,WUHU216HW,2013-02-20 11:00:00,
2013-02-20 06:05:00,24.7,13.2,30.18,North,0,0.0,0.0,61,0.00,,,0.00,WUHU216HW,2013-02-20 11:05:00,
2013-02-20 06:10:00,24.7,13.2,30.18,North,0,0.0,0.0,61,0.00,,,0.00,WUHU216HW,2013-02-20 11:10:00,
2013-02-20 06:15:00,24.6,13.1,30.18,North,0,0.0,0.0,61,0.00,,,0.00,WUHU216HW,2013-02-20 11:15:00,
2013-02-20 06:20:00,24.6,13.1,30.18,North,0,0.0,0.0,61,0.00,,,0.00,WUHU216HW,2013-02-20 11:20:00,
2013-02-20 06:25:00,24.6,13.1,30.19,North,0,0.0,0.0,61,0.00,,,0.00,WUHU216HW,2013-02-20 11:25:00,
2013-02-20 06:30:00,24.4,13.3,30.18,North,0,0.0,0.0,62,0.00,,,0.00,WUHU216HW,2013-02-20 11:30:00,
2013-02-20 06:35:00,24.4,13.3,30.18,North,0,0.0,0.0,62,0.00,,,0.00,WUHU216HW,2013-02-20 11:35:00,
2013-02-20 06:40:00,24.2,13.1,30.19,North,0,0.0,0.0,62,0.00,,,0.00,WUHU216HW,2013-02-20 11:40:00,
2013-02-20 06:45:00,24.2,13.1,30.18,North,0,0.0,0.0,62,0.00,,,0.00,WUHU216HW,2013-02-20 11:45:00,
2013-02-20 06:50:00,24.0,13.3,30.19,North,0,0.0,0.0,63,0.00,,,0.00,WUHU216HW,2013-02-20 11:50:00,
2013-02-20 06:55:00,23.8,13.1,30.19,North,0,0.0,0.0,63,0.00,,,0.00,WUHU216HW,2013-02-20 11:55:00,
2013-02-20 07:00:00,23.8,13.1,30.19,North,0,0.0,0.0,63,0.00,,,0.00,WUHU216HW,2013-02-20 12:00:00,
2013-02-20 07:05:00,23.8,13.1,30.19,North,0,0.0,0.0,63,0.00,,,0.00,WUHU216HW,2013-02-20 12:05:00,
2013-02-20 07:10:00,23.8,13.4,30.19,North,0,0.0,0.0,64,0.00,,,0.00,WUHU216HW,2013-02-20 12:10:00,
2013-02-20 07:15:00,23.5,13.2,30.19,North,0,0.0,0.0,64,0.00,,,0.00,WUHU216HW,2013-02-20 12:15:00,
2013-02-20 07:20:00,23.3,13.0,30.19,North,0,0.0,0.0,64,0.00,,,0.00,WUHU216HW,2013-02-20 12:20:00,
2013-02-20 07:25:00,23.5,13.2,30.19,North,0,0.0,0.0,64,0.00,,,0.00,WUHU216HW,2013-02-20 12:25:00,
2013-02-20 07:30:00,23.3,13.0,30.19,North,0,0.0,0.0,64,0.00,,,0.00,WUHU216HW,2013-02-20 12:30:00,
2013-02-20 07:35:00,23.3,13.3,30.20,North,0,0.0,0.0,65,0.00,,,0.00,WUHU216HW,2013-02-20 12:35:00,
2013-02-20 07:40:00,23.3,13.3,30.20,North,0,0.0,0.0,65,0.00,,,0.00,WUHU216HW,2013-02-20 12:40:00,
2013-02-20 07:45:00,23.3,13.3,30.21,North,0,0.0,0.0,65,0.00,,,0.00,WUHU216HW,2013-02-20 12:45:00,
2013-02-20 07:50:00,23.1,13.1,30.21,North,0,0.0,0.0,65,0.00,,,0.00,WUHU216HW,2013-02-20 12:50:00,
2013-02-20 07:55:00,23.1,13.1,30.21,North,0,0.0,0.0,65,0.00,,,0.00,WUHU216HW,2013-02-20 12:55:00,
2013-02-20 08:00:00,23.1,13.1,30.22,North,0,0.0,0.0,65,0.00,,,0.00,WUHU216HW,2013-02-20 13:00:00,
2013-02-20 08:05:00,23.3,13.3,30.22,North,0,0.0,0.0,65,0.00,,,0.00,WUHU216HW,2013-02-20 13:05:00,
2013-02-20 08:10:00,23.5,13.5,30.22,North,0,0.0,0.0,65,0.00,,,0.00,WUHU216HW,2013-02-20 13:10:00,
2013-02-20 08:15:00,23.5,13.5,30.22,North,0,0.0,0.0,65,0.00,,,0.00,WUHU216HW,2013-02-20 13:15:00,
2013-02-20 08:20:00,23.8,13.8,30.22,North,0,0.0,0.0,65,0.00,,,0.00,WUHU216HW,2013-02-20 13:20:00,
2013-02-20 08:25:00,24.0,14.0,30.22,North,0,0.0,0.0,65,0.00,,,0.00,WUHU216HW,2013-02-20 13:25:00,
2013-02-20 08:30:00,24.4,14.4,30.22,North,0,0.0,0.0,65,0.00,,,0.00,WUHU216HW,2013-02-20 13:30:00,
2013-02-20 08:35:00,24.6,14.6,30.22,North,0,0.0,0.0,65,0.00,,,0.00,WUHU216HW,2013-02-20 13:35:00,
2013-02-20 08:40:00,24.7,14.3,30.22,North,0,0.0,0.0,64,0.00,,,0.00,WUHU216HW,2013-02-20 13:40:00,
2013-02-20 08:45:00,24.9,14.5,30.22,North,0,0.0,0.0,64,0.00,,,0.00,WUHU216HW,2013-02-20 13:45:00,
2013-02-20 08:50:00,25.1,14.0,30.22,North,0,0.0,0.0,62,0.00,,,0.00,WUHU216HW,2013-02-20 13:50:00,
2013-02-20 08:55:00,25.3,14.1,30.22,North,0,0.0,0.0,62,0.00,,,0.00,WUHU216HW,2013-02-20 13:55:00,
2013-02-20 09:00:00,25.3,14.1,30.22,North,0,0.0,0.0,62,0.00,,,0.00,WUHU216HW,2013-02-20 14:00:00,
2013-02-20 09:05:00,25.6,14.4,30.22,North,0,0.0,0.0,62,0.00,,,0.00,WUHU216HW,2013-02-20 14:05:00,
2013-02-20 09:10:00,26.0,14.8,30.22,North,0,0.0,0.0,62,0.00,,,0.00,WUHU216HW,2013-02-20 14:10:00,
2013-02-20 09:15:00,26.4,15.2,30.22,North,0,0.0,0.0,62,0.00,,,0.00,WUHU216HW,2013-02-20 14:15:00,
2013-02-20 09:20:00,26.9,15.7,30.22,North,0,0.0,0.0,62,0.00,,,0.00,WUHU216HW,2013-02-20 14:20:00,
2013-02-20 09:25:00,27.1,15.9,30.22,North,0,0.0,0.0,62,0.00,,,0.00,WUHU216HW,2013-02-20 14:25:00,
2013-02-20 09:30:00,27.3,15.7,30.22,North,0,0.0,0.0,61,0.00,,,0.00,WUHU216HW,2013-02-20 14:30:00,
2013-02-20 09:35:00,27.4,15.0,30.22,North,0,0.0,0.0,59,0.00,,,0.00,WUHU216HW,2013-02-20 14:35:00,
2013-02-20 09:40:00,27.6,15.6,30.22,North,0,0.0,0.0,60,0.00,,,0.00,WUHU216HW,2013-02-20 14:40:00,
2013-02-20 09:45:00,28.0,15.5,30.23,North,0,0.0,0.0,59,0.00,,,0.00,WUHU216HW,2013-02-20 14:45:00,
2013-02-20 09:50:00,28.3,15.8,30.23,North,0,0.0,0.0,59,0.00,,,0.00,WUHU216HW,2013-02-20 14:50:00,
2013-02-20 09:55:00,28.2,15.3,30.23,North,0,0.0,0.0,58,0.00,,,0.00,WUHU216HW,2013-02-20 14:55:00,
2013-02-20 10:00:00,28.5,15.6,30.24,North,0,0.0,0.0,58,0.00,,,0.00,WUHU216HW,2013-02-20 15:00:00,
2013-02-20 10:05:00,28.7,15.4,30.24,North,0,0.0,0.0,57,0.00,,,0.00,WUHU216HW,2013-02-20 15:05:00,
2013-02-20 10:10:00,28.9,15.6,30.24,North,0,0.0,0.0,57,0.00,,,0.00,WUHU216HW,2013-02-20 15:10:00,
2013-02-20 10:15:00,28.7,15.4,30.24,North,0,0.0,0.0,57,0.00,,,0.00,WUHU216HW,2013-02-20 15:15:00,
2013-02-20 10:20:00,29.1,15.8,30.24,North,0,0.0,0.0,57,0.00,,,0.00,WUHU216HW,2013-02-20 15:20:00,
2013-02-20 10:25:00,29.6,16.2,30.24,North,0,0.0,0.0,57,0.00,,,0.00,WUHU216HW,2013-02-20 15:25:00,
2013-02-20 10:30:00,30.0,16.6,30.25,North,0,0.0,0.0,57,0.00,,,0.00,WUHU216HW,2013-02-20 15:30:00,
2013-02-20 10:35:00,30.1,16.7,30.25,North,0,0.0,0.0,57,0.00,,,0.00,WUHU216HW,2013-02-20 15:35:00,
2013-02-20 10:40:00,30.3,16.1,30.25,North,0,0.0,0.0,55,0.00,,,0.00,WUHU216HW,2013-02-20 15:40:00,
2013-02-20 10:45:00,30.5,16.7,30.25,North,0,0.0,0.0,56,0.00,,,0.00,WUHU216HW,2013-02-20 15:45:00,
2013-02-20 10:50:00,31.0,16.7,30.25,North,0,0.0,0.0,55,0.00,,,0.00,WUHU216HW,2013-02-20 15:50:00,
2013-02-20 10:55:00,30.9,16.6,30.25,North,0,0.0,0.0,55,0.00,,,0.00,WUHU216HW,2013-02-20 15:55:00,
2013-02-20 11:00:00,31.2,17.3,30.25,North,0,0.0,0.0,56,0.00,,,0.00,WUHU216HW,2013-02-20 16:00:00,
2013-02-20 11:05:00,31.8,17.9,30.26,North,0,0.0,0.0,56,0.00,,,0.00,WUHU216HW,2013-02-20 16:05:00,
2013-02-20 11:10:00,32.1,18.2,30.26,North,0,0.0,0.0,56,0.00,,,0.00,WUHU216HW,2013-02-20 16:10:00,
2013-02-20 11:15:00,32.5,18.1,30.26,North,0,0.0,0.0,55,0.00,,,0.00,WUHU216HW,2013-02-20 16:15:00,
2013-02-20 11:20:00,32.5,18.1,30.26,North,0,0.0,0.0,55,0.00,,,0.00,WUHU216HW,2013-02-20 16:20:00,
2013-02-20 11:25:00,32.8,17.5,30.26,North,0,0.0,0.0,53,0.00,,,0.00,WUHU216HW,2013-02-20 16:25:00,
2013-02-20 11:30:00,32.8,18.0,30.26,North,0,0.0,0.0,54,0.00,,,0.00,WUHU216HW,2013-02-20 16:30:00,
2013-02-20 11:35:00,32.8,18.0,30.26,North,0,0.0,0.0,54,0.00,,,0.00,WUHU216HW,2013-02-20 16:35:00,
2013-02-20 11:40:00,32.5,17.2,30.25,North,0,0.0,0.0,53,0.00,,,0.00,WUHU216HW,2013-02-20 16:40:00,
2013-02-20 11:45:00,32.8,17.5,30.26,North,0,0.0,0.0,53,0.00,,,0.00,WUHU216HW,2013-02-20 16:45:00,
2013-02-20 11:50:00,33.2,18.3,30.25,North,0,0.0,0.0,54,0.00,,,0.00,WUHU216HW,2013-02-20 16:50:00,
2013-02-20 11:55:00,33.7,18.4,30.26,North,0,0.0,0.0,53,0.00,,,0.00,WUHU216HW,2013-02-20 16:55:00,
2013-02-20 12:00:00,33.6,16.4,30.26,North,0,0.0,0.0,49,0.00,,,0.00,WUHU216HW,2013-02-20 17:00:00,
2013-02-20 12:05:00,32.1,15.5,30.26,North,0,0.0,0.0,50,0.00,,,0.00,WUHU216HW,2013-02-20 17:05:00,
2013-02-20 12:10:00,32.1,16.4,30.26,North,0,0.0,0.0,52,0.00,,,0.00,WUHU216HW,2013-02-20 17:10:00,
2013-02-20 12:15:00,33.0,17.2,30.26,North,0,0.0,0.0,52,0.00,,,0.00,WUHU216HW,2013-02-20 17:15:00,
2013-02-20 12:20:00,33.2,17.4,30.26,North,0,0.0,0.0,52,0.00,,,0.00,WUHU216HW,2013-02-20 17:20:00,
2013-02-20 12:25:00,33.4,17.2,30.26,North,0,0.0,0.0,51,0.00,,,0.00,WUHU216HW,2013-02-20 17:25:00,
2013-02-20 12:30:00,33.7,17.0,30.25,North,0,0.0,0.0,50,0.00,,,0.00,WUHU216HW,2013-02-20 17:30:00,
2013-02-20 12:35:00,33.7,17.9,30.25,North,0,0.0,0.0,52,0.00,,,0.00,WUHU216HW,2013-02-20 17:35:00,
2013-02-20 12:40:00,33.9,18.1,30.25,North,0,0.0,0.0,52,0.00,,,0.00,WUHU216HW,2013-02-20 17:40:00,
2013-02-20 12:45:00,34.1,17.8,30.24,North,0,0.0,0.0,51,0.00,,,0.00,WUHU216HW,2013-02-20 17:45:00,
2013-02-20 12:50:00,34.1,17.8,30.25,North,0,0.0,0.0,51,0.00,,,0.00,WUHU216HW,2013-02-20 17:50:00,
2013-02-20 12:55:00,33.9,17.6,30.24,North,0,0.0,0.0,51,0.00,,,0.00,WUHU216HW,2013-02-20 17:55:00,
2013-02-20 13:00:00,34.1,17.8,30.24,North,0,0.0,0.0,51,0.00,,,0.00,WUHU216HW,2013-02-20 18:00:00,
2013-02-20 13:05:00,34.6,17.8,30.24,North,0,0.0,0.0,50,0.00,,,0.00,WUHU216HW,2013-02-20 18:05:00,
2013-02-20 13:10:00,34.8,17.0,30.24,North,0,0.0,0.0,48,0.00,,,0.00,WUHU216HW,2013-02-20 18:10:00,
2013-02-20 13:15:00,34.3,17.5,30.24,North,0,0.0,0.0,50,0.00,,,0.00,WUHU216HW,2013-02-20 18:15:00,
2013-02-20 13:20:00,34.6,17.8,30.24,North,0,0.0,0.0,50,0.00,,,0.00,WUHU216HW,2013-02-20 18:20:00,
2013-02-20 13:25:00,35.0,18.2,30.23,North,0,0.0,0.0,50,0.00,,,0.00,WUHU216HW,2013-02-20 18:25:00,
2013-02-20 13:30:00,35.4,18.5,30.23,North,0,0.0,0.0,50,0.00,,,0.00,WUHU216HW,2013-02-20 18:30:00,
2013-02-20 13:35:00,35.5,18.6,30.23,North,0,0.0,0.0,50,0.00,,,0.00,WUHU216HW,2013-02-20 18:35:00,
2013-02-20 13:40:00,35.5,18.1,30.23,North,0,0.0,0.0,49,0.00,,,0.00,WUHU216HW,2013-02-20 18:40:00,
2013-02-20 13:45:00,35.4,18.1,30.22,North,0,0.0,0.0,49,0.00,,,0.00,WUHU216HW,2013-02-20 18:45:00,
2013-02-20 13:50:00,35.4,18.5,30.22,North,0,0.0,0.0,50,0.00,,,0.00,WUHU216HW,2013-02-20 18:50:00,
2013-02-20 13:55:00,35.5,18.1,30.22,North,0,0.0,0.0,49,0.00,,,0.00,WUHU216HW,2013-02-20 18:55:00,
2013-02-20 14:00:00,35.4,18.1,30.22,North,0,0.0,0.0,49,0.00,,,0.00,WUHU216HW,2013-02-20 19:00:00,
2013-02-20 14:05:00,35.4,18.1,30.22,North,0,0.0,0.0,49,0.00,,,0.00,WUHU216HW,2013-02-20 19:05:00,
2013-02-20 14:10:00,35.4,18.1,30.22,North,0,0.0,0.0,49,0.00,,,0.00,WUHU216HW,2013-02-20 19:10:00,
2013-02-20 14:15:00,35.4,18.5,30.22,North,0,0.0,0.0,50,0.00,,,0.00,WUHU216HW,2013-02-20 19:15:00,
2013-02-20 14:20:00,35.9,19.0,30.22,North,0,0.0,0.0,50,0.00,,,0.00,WUHU216HW,2013-02-20 19:20:00,
2013-02-20 14:25:00,35.9,19.0,30.22,North,0,0.0,0.0,50,0.00,,,0.00,WUHU216HW,2013-02-20 19:25:00,
2013-02-20 14:30:00,36.3,18.4,30.22,North,0,0.0,0.0,48,0.00,,,0.00,WUHU216HW,2013-02-20 19:30:00,
2013-02-20 14:35:00,36.4,18.5,30.22,North,0,0.0,0.0,48,0.00,,,0.00,WUHU216HW,2013-02-20 19:35:00,
2013-02-20 14:41:00,36.4,18.5,30.22,North,0,0.0,0.0,48,0.00,,,0.00,WUHU216HW,2013-02-20 19:41:00,
2013-02-20 14:46:00,36.6,18.7,30.22,North,0,0.0,0.0,48,0.00,,,0.00,WUHU216HW,2013-02-20 19:46:00,
2013-02-20 14:51:00,36.8,19.3,30.22,North,0,0.0,0.0,49,0.00,,,0.00,WUHU216HW,2013-02-20 19:51:00,
2013-02-20 14:56:00,36.8,19.3,30.22,North,0,0.0,0.0,49,0.00,,,0.00,WUHU216HW,2013-02-20 19:56:00,
2013-02-20 15:01:00,37.0,19.0,30.22,North,0,0.0,0.0,48,0.00,,,0.00,WUHU216HW,2013-02-20 20:01:00,
2013-02-20 15:06:00,37.0,19.5,30.22,North,0,0.0,0.0,49,0.00,,,0.00,WUHU216HW,2013-02-20 20:06:00,
2013-02-20 15:11:00,37.0,18.5,30.22,North,0,0.0,0.0,47,0.00,,,0.00,WUHU216HW,2013-02-20 20:11:00,
2013-02-20 15:16:00,37.0,19.0,30.22,North,0,0.0,0.0,48,0.00,,,0.00,WUHU216HW,2013-02-20 20:16:00,
2013-02-20 15:21:00,37.0,19.0,30.21,North,0,0.0,0.0,48,0.00,,,0.00,WUHU216HW,2013-02-20 20:21:00,
2013-02-20 15:26:00,36.8,18.3,30.21,North,0,0.0,0.0,47,0.00,,,0.00,WUHU216HW,2013-02-20 20:26:00,
2013-02-20 15:31:00,36.8,18.3,30.22,North,0,0.0,0.0,47,0.00,,,0.00,WUHU216HW,2013-02-20 20:31:00,
2013-02-20 15:36:00,36.8,17.3,30.21,North,0,0.0,0.0,45,0.00,,,0.00,WUHU216HW,2013-02-20 20:36:00,
2013-02-20 15:41:00,36.3,17.4,30.21,North,0,0.0,0.0,46,0.00,,,0.00,WUHU216HW,2013-02-20 20:41:00,
2013-02-20 15:46:00,36.4,18.0,30.21,North,0,0.0,0.0,47,0.00,,,0.00,WUHU216HW,2013-02-20 20:46:00,
2013-02-20 15:51:00,36.3,17.9,30.21,North,0,0.0,0.0,47,0.00,,,0.00,WUHU216HW,2013-02-20 20:51:00,
2013-02-20 15:56:00,36.4,18.0,30.21,North,0,0.0,0.0,47,0.00,,,0.00,WUHU216HW,2013-02-20 20:56:00,
2013-02-20 16:01:00,36.4,16.9,30.21,North,0,0.0,0.0,45,0.00,,,0.00,WUHU216HW,2013-02-20 21:01:00,
2013-02-20 16:06:00,35.9,17.0,30.21,North,0,0.0,0.0,46,0.00,,,0.00,WUHU216HW,2013-02-20 21:06:00,
2013-02-20 16:11:00,36.1,17.2,30.22,North,0,0.0,0.0,46,0.00,,,0.00,WUHU216HW,2013-02-20 21:11:00,
2013-02-20 16:16:00,36.3,17.9,30.21,North,0,0.0,0.0,47,0.00,,,0.00,WUHU216HW,2013-02-20 21:16:00,
2013-02-20 16:21:00,36.4,17.5,30.22,North,0,0.0,0.0,46,0.00,,,0.00,WUHU216HW,2013-02-20 21:21:00,
2013-02-20 16:26:00,36.1,16.7,30.21,North,0,0.0,0.0,45,0.00,,,0.00,WUHU216HW,2013-02-20 21:26:00,
2013-02-20 16:31:00,35.2,16.4,30.21,North,0,0.0,0.0,46,0.00,,,0.00,WUHU216HW,2013-02-20 21:31:00,
2013-02-20 16:36:00,35.0,16.2,30.21,North,0,0.0,0.0,46,0.00,,,0.00,WUHU216HW,2013-02-20 21:36:00,
2013-02-20 17:00:00,34.6,16.3,30.21,North,0,0.0,0.0,47,0.00,,,0.00,WUHU216HW,2013-02-20 22:00:00,
2013-02-20 17:05:00,34.5,16.2,30.21,North,0,0.0,0.0,47,0.00,,,0.00,WUHU216HW,2013-02-20 22:05:00,
2013-02-20 17:10:00,34.5,16.7,30.21,North,0,0.0,0.0,48,0.00,,,0.00,WUHU216HW,2013-02-20 22:10:00,
2013-02-20 17:15:00,34.6,16.8,30.21,North,0,0.0,0.0,48,0.00,,,0.00,WUHU216HW,2013-02-20 22:15:00,
2013-02-20 17:20:00,34.6,16.8,30.21,North,0,0.0,0.0,48,0.00,,,0.00,WUHU216HW,2013-02-20 22:20:00,
2013-02-20 17:25:00,34.3,16.5,30.21,North,0,0.0,0.0,48,0.00,,,0.00,WUHU216HW,2013-02-20 22:25:00,
2013-02-20 17:30:00,33.9,15.7,30.21,North,0,0.0,0.0,47,0.00,,,0.00,WUHU216HW,2013-02-20 22:30:00,
2013-02-20 17:35:00,33.7,15.5,30.21,North,0,0.0,0.0,47,0.00,,,0.00,WUHU216HW,2013-02-20 22:35:00,
2013-02-20 17:40:00,33.6,15.4,30.21,North,0,0.0,0.0,47,0.00,,,0.00,WUHU216HW,2013-02-20 22:40:00,
2013-02-20 17:45:00,33.6,15.9,30.21,North,0,0.0,0.0,48,0.00,,,0.00,WUHU216HW,2013-02-20 22:45:00,
2013-02-20 17:50:00,33.6,14.9,30.21,North,0,0.0,0.0,46,0.00,,,0.00,WUHU216HW,2013-02-20 22:50:00,
2013-02-20 17:55:00,33.6,15.4,30.21,North,0,0.0,0.0,47,0.00,,,0.00,WUHU216HW,2013-02-20 22:55:00,
2013-02-20 18:00:00,33.4,15.7,30.22,North,0,0.0,0.0,48,0.00,,,0.00,WUHU216HW,2013-02-20 23:00:00,
2013-02-20 18:05:00,33.4,15.7,30.22,North,0,0.0,0.0,48,0.00,,,0.00,WUHU216HW,2013-02-20 23:05:00,
2013-02-20 18:10:00,33.4,15.7,30.22,North,0,0.0,0.0,48,0.00,,,0.00,WUHU216HW,2013-02-20 23:10:00,
2013-02-20 18:15:00,33.2,15.5,30.23,North,0,0.0,0.0,48,0.00,,,0.00,WUHU216HW,2013-02-20 23:15:00,
2013-02-20 18:20:00,33.2,15.5,30.23,North,0,0.0,0.0,48,0.00,,,0.00,WUHU216HW,2013-02-20 23:20:00,
2013-02-20 18:25:00,33.2,16.0,30.22,North,0,0.0,0.0,49,0.00,,,0.00,WUHU216HW,2013-02-20 23:25:00,
2013-02-20 18:30:00,33.2,16.0,30.22,North,0,0.0,0.0,49,0.00,,,0.00,WUHU216HW,2013-02-20 23:30:00,
2013-02-20 18:35:00,33.0,15.8,30.22,North,0,0.0,0.0,49,0.00,,,0.00,WUHU216HW,2013-02-20 23:35:00,
2013-02-20 18:40:00,32.8,15.6,30.22,North,0,0.0,0.0,49,0.00,,,0.00,WUHU216HW,2013-02-20 23:40:00,
2013-02-20 18:45:00,32.7,15.6,30.22,North,0,0.0,0.0,49,0.00,,,0.00,WUHU216HW,2013-02-20 23:45:00,
2013-02-20 18:50:00,32.5,15.4,30.22,North,0,0.0,0.0,49,0.00,,,0.00,WUHU216HW,2013-02-20 23:50:00,
2013-02-20 18:55:00,32.3,15.2,30.21,North,0,0.0,0.0,49,0.00,,,0.00,WUHU216HW,2013-02-20 23:55:00,
2013-02-20 19:00:00,31.9,14.8,30.21,North,0,0.0,0.0,49,0.00,,,0.00,WUHU216HW,2013-02-21 00:00:00,
2013-02-20 19:05:00,31.8,15.2,30.21,North,0,0.0,0.0,50,0.00,,,0.00,WUHU216HW,2013-02-21 00:05:00,
2013-02-20 19:10:00,31.8,15.2,30.21,North,0,0.0,0.0,50,0.00,,,0.00,WUHU216HW,2013-02-21 00:10:00,
2013-02-20 19:15:00,31.8,15.2,30.21,North,0,0.0,0.0,50,0.00,,,0.00,WUHU216HW,2013-02-21 00:15:00,
2013-02-20 19:20:00,31.8,15.2,30.21,North,0,0.0,0.0,50,0.00,,,0.00,WUHU216HW,2013-02-21 00:20:00,
2013-02-20 19:25:00,31.6,15.0,30.21,North,0,0.0,0.0,50,0.00,,,0.00,WUHU216HW,2013-02-21 00:25:00,
2013-02-20 19:30:00,31.4,14.8,30.22,North,0,0.0,0.0,50,0.00,,,0.00,WUHU216HW,2013-02-21 00:30:00,
2013-02-20 19:35:00,31.6,15.5,30.22,North,0,0.0,0.0,51,0.00,,,0.00,WUHU216HW,2013-02-21 00:35:00,
2013-02-20 19:40:00,31.6,15.5,30.22,North,0,0.0,0.0,51,0.00,,,0.00,WUHU216HW,2013-02-21 00:40:00,
2013-02-20 19:45:00,31.8,15.7,30.22,North,0,0.0,0.0,51,0.00,,,0.00,WUHU216HW,2013-02-21 00:45:00,
2013-02-20 19:50:00,31.6,15.5,30.22,North,0,0.0,0.0,51,0.00,,,0.00,WUHU216HW,2013-02-21 00:50:00,
2013-02-20 19:55:00,31.6,15.5,30.22,North,0,0.0,0.0,51,0.00,,,0.00,WUHU216HW,2013-02-21 00:55:00,
2013-02-20 20:00:00,31.4,15.3,30.21,North,0,0.0,0.0,51,0.00,,,0.00,WUHU216HW,2013-02-21 01:00:00,
2013-02-20 20:05:00,31.4,15.8,30.22,North,0,0.0,0.0,52,0.00,,,0.00,WUHU216HW,2013-02-21 01:05:00,
2013-02-20 20:10:00,31.4,15.8,30.22,North,0,0.0,0.0,52,0.00,,,0.00,WUHU216HW,2013-02-21 01:10:00,
2013-02-20 20:15:00,31.6,15.9,30.21,North,0,0.0,0.0,52,0.00,,,0.00,WUHU216HW,2013-02-21 01:15:00,
2013-02-20 20:20:00,31.4,15.8,30.21,North,0,0.0,0.0,52,0.00,,,0.00,WUHU216HW,2013-02-21 01:20:00,
2013-02-20 20:25:00,31.4,15.8,30.21,North,0,0.0,0.0,52,0.00,,,0.00,WUHU216HW,2013-02-21 01:25:00,
2013-02-20 20:31:00,31.6,15.9,30.21,North,0,0.0,0.0,52,0.00,,,0.00,WUHU216HW,2013-02-21 01:31:00,
2013-02-20 20:36:00,31.8,16.1,30.22,North,0,0.0,0.0,52,0.00,,,0.00,WUHU216HW,2013-02-21 01:36:00,
2013-02-20 20:41:00,31.8,16.1,30.22,North,0,0.0,0.0,52,0.00,,,0.00,WUHU216HW,2013-02-21 01:41:00,
2013-02-20 20:46:00,31.8,16.1,30.22,North,0,0.0,0.0,52,0.00,,,0.00,WUHU216HW,2013-02-21 01:46:00,
2013-02-20 20:51:00,31.8,16.1,30.23,North,0,0.0,0.0,52,0.00,,,0.00,WUHU216HW,2013-02-21 01:51:00,
2013-02-20 20:56:00,31.8,16.1,30.23,North,0,0.0,0.0,52,0.00,,,0.00,WUHU216HW,2013-02-21 01:56:00,
2013-02-20 21:01:00,31.4,15.8,30.22,North,0,0.0,0.0,52,0.00,,,0.00,WUHU216HW,2013-02-21 02:01:00,
2013-02-20 21:06:00,31.2,15.6,30.22,North,0,0.0,0.0,52,0.00,,,0.00,WUHU216HW,2013-02-21 02:06:00,
2013-02-20 21:11:00,30.9,15.3,30.22,North,0,0.0,0.0,52,0.00,,,0.00,WUHU216HW,2013-02-21 02:11:00,
2013-02-20 21:16:00,30.5,14.9,30.22,North,0,0.0,0.0,52,0.00,,,0.00,WUHU216HW,2013-02-21 02:16:00,
2013-02-20 21:21:00,30.3,15.2,30.22,North,0,0.0,0.0,53,0.00,,,0.00,WUHU216HW,2013-02-21 02:21:00,
2013-02-20 21:26:00,30.5,15.4,30.22,North,0,0.0,0.0,53,0.00,,,0.00,WUHU216HW,2013-02-21 02:26:00,
2013-02-20 21:31:00,30.3,15.2,30.22,North,0,0.0,0.0,53,0.00,,,0.00,WUHU216HW,2013-02-21 02:31:00,
2013-02-20 21:36:00,30.3,15.2,30.22,North,0,0.0,0.0,53,0.00,,,0.00,WUHU216HW,2013-02-21 02:36:00,
2013-02-20 21:41:00,30.5,15.8,30.22,North,0,0.0,0.0,54,0.00,,,0.00,WUHU216HW,2013-02-21 02:41:00,
2013-02-20 21:46:00,30.1,15.4,30.22,North,0,0.0,0.0,54,0.00,,,0.00,WUHU216HW,2013-02-21 02:46:00,
2013-02-20 21:51:00,29.6,15.0,30.21,North,0,0.0,0.0,54,0.00,,,0.00,WUHU216HW,2013-02-21 02:51:00,
2013-02-20 21:56:00,29.4,14.8,30.21,North,0,0.0,0.0,54,0.00,,,0.00,WUHU216HW,2013-02-21 02:56:00,
2013-02-20 22:01:00,29.4,15.2,30.21,North,0,0.0,0.0,55,0.00,,,0.00,WUHU216HW,2013-02-21 03:01:00,
2013-02-20 22:06:00,29.6,15.4,30.22,North,0,0.0,0.0,55,0.00,,,0.00,WUHU216HW,2013-02-21 03:06:00,
2013-02-20 22:11:00,29.6,15.4,30.22,North,0,0.0,0.0,55,0.00,,,0.00,WUHU216HW,2013-02-21 03:11:00,
2013-02-20 22:16:00,29.4,15.6,30.22,North,0,0.0,0.0,56,0.00,,,0.00,WUHU216HW,2013-02-21 03:16:00,
2013-02-20 22:21:00,29.2,15.5,30.22,North,0,0.0,0.0,56,0.00,,,0.00,WUHU216HW,2013-02-21 03:21:00,
2013-02-20 22:26:00,29.2,15.5,30.23,North,0,0.0,0.0,56,0.00,,,0.00,WUHU216HW,2013-02-21 03:26:00,
2013-02-20 22:31:00,29.2,15.5,30.23,North,0,0.0,0.0,56,0.00,,,0.00,WUHU216HW,2013-02-21 03:31:00,
2013-02-20 22:36:00,29.1,15.4,30.23,North,0,0.0,0.0,56,0.00,,,0.00,WUHU216HW,2013-02-21 03:36:00,
2013-02-20 22:41:00,28.9,15.2,30.23,North,0,0.0,0.0,56,0.00,,,0.00,WUHU216HW,2013-02-21 03:41:00,
2013-02-20 22:46:00,28.9,15.2,30.23,North,0,0.0,0.0,56,0.00,,,0.00,WUHU216HW,2013-02-21 03:46:00,
2013-02-20 22:51:00,28.5,14.8,30.22,North,0,0.0,0.0,56,0.00,,,0.00,WUHU216HW,2013-02-21 03:51:00,
2013-02-20 22:56:00,28.5,14.8,30.23,North,0,0.0,0.0,56,0.00,,,0.00,WUHU216HW,2013-02-21 03:56:00,
2013-02-20 23:01:00,28.3,14.6,30.23,North,0,0.0,0.0,56,0.00,,,0.00,WUHU216HW,2013-02-21 04:01:00,
2013-02-20 23:06:00,28.3,15.0,30.23,North,0,0.0,0.0,57,0.00,,,0.00,WUHU216HW,2013-02-21 04:06:00,
2013-02-20 23:11:00,28.3,15.0,30.23,North,0,0.0,0.0,57,0.00,,,0.00,WUHU216HW,2013-02-21 04:11:00,
2013-02-20 23:16:00,28.3,15.0,30.22,North,0,0.0,0.0,57,0.00,,,0.00,WUHU216HW,2013-02-21 04:16:00,
2013-02-20 23:21:00,28.3,15.0,30.22,North,0,0.0,0.0,57,0.00,,,0.00,WUHU216HW,2013-02-21 04:21:00,
2013-02-20 23:26:00,28.3,15.0,30.23,North,0,0.0,0.0,57,0.00,,,0.00,WUHU216HW,2013-02-21 04:26:00,
2013-02-20 23:31:00,28.3,15.0,30.23,North,0,0.0,0.0,57,0.00,,,0.00,WUHU216HW,2013-02-21 04:31:00,
2013-02-20 23:36:00,28.2,14.9,30.23,North,0,0.0,0.0,57,0.00,,,0.00,WUHU216HW,2013-02-21 04:36:00,
2013-02-20 23:41:00,28.2,14.9,30.23,North,0,0.0,0.0,57,0.00,,,0.00,WUHU216HW,2013-02-21 04:41:00,
2013-02-20 23:46:00,28.2,14.9,30.23,North,0,0.0,0.0,57,0.00,,,0.00,WUHU216HW,2013-02-21 04:46:00,
2013-02-20 23:51:00,27.8,15.0,30.22,North,0,0.0,0.0,58,0.00,,,0.00,WUHU216HW,2013-02-21 04:51:00,
2013-02-20 23:56:00,27.4,14.6,30.22,North,0,0.0,0.0,58,0.00,,,0.00,WUHU216HW,2013-02-21 04:56:00,